This is the latest recevied weather packets stored in our database for station/object KC3UTO. If no packets are shown the sender has not sent any weather packets the latest 1 day(s).
| Time | Temp. | Humidity | Pressure | Rain* | Wind** | Luminosity | Snow |
|---|---|---|---|---|---|---|---|
| 1778067114 | 18.89° C | 70% | 1008.3 hPa | 0 mm | - | 47 W/m² | - |
| 1778066205 | 18.89° C | 69% | 1008.1 hPa | 0 mm | - | 55 W/m² | - |
| 1778065297 | 18.89° C | 69% | 1008.4 hPa | 0 mm | - | 32 W/m² | - |
| 1778064389 | 18.89° C | 69% | 1008 hPa | 0 mm | - | 49 W/m² | - |
| 1778064086 | 18.89° C | 69% | 1008.2 hPa | 0 mm | - | 51 W/m² | - |
| 1778063480 | 18.33° C | 69% | 1007.8 hPa | 0 mm | - | 20 W/m² | - |
| 1778063178 | 18.33° C | 70% | 1007.8 hPa | 0 mm | - | 15 W/m² | - |
| 1778062875 | 18.89° C | 69% | 1007.7 hPa | 0 mm | - | 14 W/m² | - |
| 1778062572 | 18.33° C | 70% | 1007.8 hPa | 0 mm | - | 14 W/m² | - |
| 1778060455 | 18.89° C | 69% | 1007.9 hPa | 0 mm | - | 0 W/m² | - |
| 1778060153 | 18.89° C | 69% | 1007.8 hPa | 0 mm | - | 0 W/m² | - |
| 1778059850 | 18.89° C | 69% | 1007.8 hPa | 0 mm | - | 0 W/m² | - |
| 1778059548 | 18.89° C | 69% | 1007.9 hPa | 0 mm | - | 0 W/m² | - |
| 1778058943 | 18.89° C | 69% | 1008 hPa | 0 mm | - | 0 W/m² | - |
| 1778058337 | 18.89° C | 68% | 1008.2 hPa | 0 mm | - | 0 W/m² | - |
| 1778057427 | 18.89° C | 67% | 1008.1 hPa | 0 mm | - | 0 W/m² | - |
| 1778057124 | 18.89° C | 67% | 1008.1 hPa | 0 mm | - | 0 W/m² | - |
| 1778056820 | 18.89° C | 67% | 1008.1 hPa | 0 mm | - | 0 W/m² | - |
| 1778056215 | 18.89° C | 66% | 1008 hPa | 0 mm | - | 0 W/m² | - |
| 1778055607 | 18.89° C | 66% | 1008.1 hPa | 0 mm | - | 0 W/m² | - |
| 1778055003 | 19.44° C | 65% | 1008.1 hPa | 0 mm | - | 0 W/m² | - |
| 1778054700 | 19.44° C | 65% | 1008.1 hPa | 0 mm | - | 0 W/m² | - |
| 1778054397 | 18.89° C | 65% | 1008 hPa | 0 mm | - | 0 W/m² | - |
| 1778054095 | 18.89° C | 65% | 1008.1 hPa | 0 mm | - | 0 W/m² | - |
| 1778053791 | 18.89° C | 64% | 1008.2 hPa | 0 mm | - | 0 W/m² | - |
* Rain latest hour (hover to see other rain measurements)
** Current wind speed in m/s (hover to see current wind gust speed)